EHI
9 3 0 0 0 0 0 0 0 0 0 0 0 1 1 0 0 0 1 1 2 1 1 3 4 4 3 2 2 2 2 3 3 1 1 3 3 2 3 2 1 0 1 1 1 1 1 1 1
5 2 1 1 1 0 0 0 0 0 0 0 0 1 1 1 0 0 0 1 1 1 0 2 4 4 3 3 3 2 2 2 2 1 1 1 1 1 2 2 1 1 2 2 2 2 2 2 2
2 3 4 3 2 1 0 0 0 1 0 0 0 1 1 1 1 1 0 0 0 0 0 2 4 5 4 4 4 3 3 2 2 2 2 1 0 1 2 3 3 3 3 3 3 3 3 3 3
4 5 5 3 3 2 0 0 0 0 0 0 0 0 0 1 2 3 2 1 0 0 0 1 4 4 3 3 4 3 3 1 1 3 4 2 1 2 3 4 4 3 3 3 3 3 4 4 4
5 6 4 2 1 1 0 0 0 0 0 0 1 1 0 1 4 6 5 1 0 0 0 1 3 4 3 3 3 3 3 1 1 3 4 4 3 4 4 4 4 4 4 4 4 5 6 6 6
9 7 4 1 0 0 0 0 0 1 0 1 2 1 1 3 5 7 5 1 0 0 0 1 4 4 4 4 3 4 3 2 2 3 4 4 5 6 6 6 6 7 7 6 6 7 7 8 8
12 9 4 1 0 0 0 0 0 0 0 1 1 1 1 3 6 6 4 1 0 0 0 1 3 3 3 3 3 3 4 4 5 5 5 5 6 8 9 10 11 10 9 8 8 8 8 8 10
11 7 3 1 0 0 0 0 0 0 0 0 0 0 1 4 7 7 3 1 1 1 1 1 1 1 1 2 2 2 3 4 5 5 5 6 6 8 11 13 14 13 11 11 10 9 8 9 11
7 4 1 0 0 1 1 1 1 1 1 0 1 2 4 7 9 8 4 2 2 1 1 0 0 0 0 0 1 1 1 3 3 4 5 5 5 6 9 13 16 17 16 15 15 13 12 11 11
5 3 1 1 2 4 4 3 2 2 2 2 3 5 7 8 8 7 6 4 2 1 0 0 0 0 0 0 0 0 0 1 1 2 3 3 3 3 5 9 14 17 17 16 15 14 13 10 8
4 3 2 3 4 5 4 3 2 2 2 3 6 8 9 7 5 4 5 4 1 0 0 0 0 0 0 0 0 0 0 0 0 1 1 2 1 1 2 4 7 9 10 10 9 9 8 6 4
2 2 3 3 3 2 1 1 1 1 2 5 8 9 9 6 3 2 3 3 1 0 0 0 0 0 0 0 0 0 0 0 0 0 0 0 0 0 1 2 3 4 6 6 5 4 4 3 3
1 1 1 1 1 0 0 0 0 1 3 7 9 9 9 6 2 1 2 2 0 0 0 0 0 0 0 0 0 0 0 0 0 0 0 0 0 0 2 3 4 5 5 4 4 4 3 3 3
0 0 0 0 0 0 0 1 1 3 6 9 11 10 9 8 5 3 3 3 1 1 2 2 3 2 1 2 2 1 0 0 0 0 0 0 0 0 1 2 4 5 4 3 4 4 4 3 4
0 0 0 0 0 0 0 1 2 5 8 10 10 9 8 8 7 5 5 4 3 4 6 8 8 5 3 3 3 1 0 0 0 0 0 0 0 0 0 0 2 3 3 3 3 4 3 3 4
0 0 0 0 0 0 0 1 3 8 10 9 8 6 6 6 6 6 5 4 4 6 8 10 10 7 4 4 3 1 0 0 0 0 0 0 0 0 0 0 0 1 2 2 3 3 3 3 2
0 0 0 0 0 0 0 2 5 9 11 10 7 6 6 7 7 8 8 6 4 4 6 8 8 7 5 4 3 1 1 1 1 0 0 0 1 1 1 0 1 2 2 3 3 3 4 3 2
0 0 0 0 0 0 1 2 5 8 9 8 7 7 7 9 10 11 12 12 10 7 7 9 9 8 7 6 4 3 2 2 2 1 0 0 1 2 3 2 2 3 3 3 3 3 3 3 1
0 0 0 0 0 0 2 3 4 5 4 5 7 8 8 11 13 13 14 18 20 18 16 15 15 13 11 10 7 4 3 3 2 1 0 0 1 2 4 5 5 4 3 3 3 3 3 2 1
0 0 0 0 0 1 2 2 3 3 2 2 6 9 12 14 15 14 16 21 26 26 23 21 21 21 18 14 10 6 4 3 2 1 1 0 0 1 4 6 6 4 3 3 3 3 2 2 2
0 0 0 0 1 1 1 1 2 3 2 2 5 9 13 15 16 15 15 20 26 28 25 24 25 26 24 19 15 11 7 5 3 3 3 1 0 1 4 6 6 4 4 4 4 4 4 3 3
0 0 0 0 1 1 1 0 1 3 5 4 6 9 12 14 16 15 16 20 27 30 28 27 28 28 26 24 21 16 11 7 5 6 5 3 2 2 4 6 7 6 5 5 6 6 6 5 4
0 0 0 0 0 0 0 0 1 4 7 7 7 10 13 13 13 15 19 23 28 31 31 29 27 25 24 24 23 19 14 11 9 8 8 6 3 3 4 6 7 7 8 7 5 4 5 5 5
0 0 0 0 0 0 0 0 1 4 7 8 8 9 11 12 11 14 19 24 27 30 31 28 24 20 20 21 20 19 16 13 11 10 9 7 5 3 3 4 5 6 7 6 3 2 3 5 5
0 0 0 0 0 0 0 0 0 4 8 9 8 7 8 9 10 12 17 21 23 25 26 24 20 18 18 19 19 19 17 14 12 10 9 8 7 5 4 4 4 4 5 5 4 2 3 4 5
0 0 0 0 0 0 0 1 1 4 8 9 7 6 6 7 9 11 15 17 19 20 21 21 20 19 19 19 19 19 18 15 12 11 10 9 9 8 6 5 4 3 5 7 7 5 4 5 5
0 0 0 0 0 0 1 2 3 6 9 9 7 5 5 6 9 11 13 15 17 19 20 21 22 22 22 21 20 18 16 14 12 12 11 10 9 8 8 7 5 4 6 8 9 8 6 6 5
0 0 0 0 0 0 1 2 3 6 9 8 6 6 6 7 10 13 13 14 17 18 19 21 21 22 23 22 20 17 13 11 11 12 12 11 10 9 8 7 6 6 7 8 9 8 7 6 6
0 0 0 0 0 0 0 1 2 5 7 7 6 7 8 9 11 15 16 16 16 17 17 19 18 19 21 20 18 15 13 12 12 12 11 11 10 10 10 9 8 9 10 9 8 7 6 5 6
0 0 0 0 0 0 0 0 1 4 5 6 6 7 8 9 12 15 18 17 16 15 15 16 17 18 19 19 18 15 14 14 14 12 10 9 9 11 11 11 11 12 12 9 7 6 5 5 4
Wind_Speed
8 5 3 1 1 2 0 1 3 5 5 6 8 9 8 7 4 5 3 10 11 9 7 9 12 12 12 12 11 12 12 11 11 11 11 10 10 10 10 10 10 9 9 9 8 8 8 8 7
4 4 1 1 2 2 1 2 6 6 7 9 10 10 9 7 6 9 6 10 12 10 7 8 12 12 12 11 11 11 11 11 11 10 10 10 10 10 10 10 9 9 9 8 8 7 7 7 7
5 3 0 1 1 1 1 3 7 8 7 7 6 6 6 6 7 6 7 13 11 8 6 8 13 12 12 11 11 10 10 10 10 9 9 9 9 9 9 9 9 8 8 7 7 7 7 7 6
2 0 1 1 1 1 3 4 8 9 8 7 8 7 4 5 6 8 13 13 11 8 6 8 13 13 12 11 11 10 10 10 9 9 8 8 8 8 9 9 9 8 7 7 7 6 6 6 5
1 1 2 1 1 1 4 6 9 8 6 7 10 7 4 4 11 14 14 13 11 8 6 7 13 13 12 11 10 10 10 9 9 8 8 8 8 8 8 8 8 8 7 7 6 6 6 5 5
1 2 2 1 2 2 3 6 10 11 10 9 9 7 3 6 11 12 12 11 10 9 7 7 12 12 11 11 10 9 9 9 8 8 8 7 7 8 8 8 8 7 7 7 6 6 6 6 6
2 1 1 1 2 3 3 5 8 9 8 6 7 6 3 5 9 10 10 10 9 9 7 5 6 8 11 10 10 9 8 8 7 7 7 7 6 7 7 7 7 7 7 7 7 6 6 6 6
3 1 1 1 3 2 3 5 7 9 7 8 6 7 5 6 9 10 9 9 8 7 6 5 4 4 4 6 9 9 8 8 7 7 6 6 6 6 7 7 7 8 8 8 8 8 7 7 7
3 2 2 3 4 3 4 6 4 6 9 5 5 6 8 12 11 10 8 7 6 6 4 5 5 4 4 4 7 7 7 7 6 5 6 5 2 2 4 6 8 8 8 8 8 8 8 8 7
4 4 6 5 6 6 5 6 5 6 8 7 7 8 11 12 11 10 10 9 7 7 6 5 5 5 4 5 4 3 3 3 2 2 2 1 1 2 3 5 8 8 9 9 9 9 8 6 3
6 6 4 3 5 6 5 4 4 9 6 9 12 11 11 11 9 9 9 9 8 8 7 6 6 5 4 3 3 2 2 1 2 2 2 1 1 1 1 1 2 3 5 4 5 5 3 3 3
3 4 4 3 3 5 6 6 5 7 8 10 12 12 10 11 10 9 8 8 7 8 7 6 6 5 4 4 3 3 2 2 2 2 3 2 1 1 1 1 2 2 2 2 2 2 3 3 4
2 1 0 2 3 6 8 7 6 7 10 11 11 11 10 9 8 7 8 8 8 7 7 7 6 5 4 4 3 4 3 3 3 2 2 3 2 2 1 1 1 2 2 2 2 2 3 3 3
2 1 0 2 4 6 9 6 5 7 10 12 12 10 10 9 8 7 7 7 7 7 7 6 6 5 4 4 3 3 3 3 2 2 3 3 3 2 2 1 1 1 1 2 2 2 2 2 2
1 3 3 0 2 4 9 4 4 8 10 10 10 9 9 8 9 9 9 8 8 7 7 6 6 5 5 5 4 3 3 3 2 2 2 3 2 2 2 1 1 2 1 1 1 1 1 1 2
3 3 1 3 2 3 8 4 4 8 10 9 8 8 7 6 8 8 9 8 7 7 7 6 6 5 4 4 3 2 2 3 2 2 2 2 2 2 1 1 1 2 1 1 1 1 1 1 1
3 1 2 4 0 3 5 4 4 6 10 9 7 7 7 6 6 7 8 8 7 7 7 5 5 5 4 4 3 3 2 2 1 1 1 2 2 2 2 1 2 1 0 0 1 1 1 1 2
3 2 3 3 2 3 4 4 5 6 7 8 7 6 6 8 7 7 7 8 7 6 6 5 5 4 4 3 2 2 2 1 1 1 1 2 1 1 1 1 1 1 0 0 0 1 1 1 1
4 2 3 5 2 4 5 5 6 5 5 6 5 6 6 6 7 7 7 7 7 6 6 5 5 4 3 2 2 2 1 1 0 1 1 1 1 1 1 1 0 0 1 1 1 1 0 1 0
2 1 3 3 1 4 5 3 4 5 6 8 7 7 7 6 6 6 7 7 6 6 6 6 5 4 4 3 2 2 2 1 1 1 0 1 1 1 1 1 1 0 0 0 0 0 0 1 0
2 4 4 3 1 4 5 2 1 1 2 4 5 5 5 8 9 8 7 6 6 6 7 6 5 5 4 3 2 2 1 1 1 0 0 1 1 1 1 1 1 0 1 1 1 0 1 1 1
5 6 4 3 4 1 3 1 5 3 1 2 3 3 4 6 8 8 8 7 8 7 6 5 5 4 4 4 4 4 3 2 2 1 1 1 0 0 1 1 1 1 0 0 1 0 1 1 1
7 4 3 3 4 2 2 3 5 1 3 4 4 5 5 7 8 8 8 8 7 7 6 5 5 4 3 4 4 4 2 2 1 0 0 1 0 0 0 1 1 0 0 0 1 0 0 1 2
1 4 5 5 5 2 3 2 5 4 7 6 5 6 6 7 8 7 7 6 5 5 5 5 4 3 3 3 3 4 3 2 1 1 1 0 0 1 1 1 1 0 0 0 1 1 0 1 1
3 5 4 6 4 4 3 1 6 7 6 8 8 7 6 7 8 7 6 7 6 6 6 5 5 4 3 3 3 4 4 3 3 2 2 1 0 1 2 1 0 0 1 0 0 0 1 1 0
3 8 7 4 4 4 3 3 6 4 5 5 5 6 6 8 8 8 8 8 7 8 7 6 6 5 4 4 4 3 3 2 2 2 2 2 1 2 2 1 1 1 0 0 0 0 1 1 1
1 2 7 7 2 1 3 4 5 1 2 3 4 5 7 8 8 7 7 7 6 7 8 7 7 5 5 5 4 3 3 3 2 2 1 1 1 1 1 1 1 1 1 1 0 0 1 1 1
3 3 5 5 3 1 3 3 4 4 5 4 4 4 6 7 7 6 5 5 5 5 6 6 6 6 5 4 4 3 3 3 2 1 1 1 1 1 0 0 1 1 1 1 0 1 1 1 1
3 3 4 4 5 6 3 6 6 9 8 7 5 5 6 7 8 7 6 5 5 5 5 6 5 5 4 4 3 2 2 1 1 1 2 1 1 1 1 1 1 1 1 1 0 1 1 1 1
2 3 5 4 2 4 4 7 3 7 7 7 7 5 6 7 6 6 7 6 5 5 5 5 5 5 5 5 4 3 3 2 2 2 1 1 1 1 1 1 0 0 1 1 0 1 1 1 1
Wind_Direction
190 178 167 218 5 39 15 169 101 81 64 67 79 84 80 67 99 130 153 143 140 144 145 138 132 130 127 125 124 121 121 120 120 122 124 126 128 131 134 135 137 139 142 144 144 147 151 148 148
177 176 184 14 52 46 332 117 97 99 121 108 86 85 79 72 88 115 131 145 142 143 142 139 135 132 130 129 128 126 126 125 125 125 127 130 132 134 138 141 141 143 146 148 150 151 155 158 159
186 205 209 36 43 153 126 98 104 101 103 96 90 67 73 104 112 132 146 144 140 139 141 145 138 135 133 132 132 133 131 130 129 128 129 133 138 142 144 145 145 147 149 152 153 153 157 164 169
166 113 19 38 306 238 149 131 112 104 84 73 92 73 59 106 128 136 137 138 135 140 144 148 140 138 137 137 138 139 138 137 136 134 134 138 144 148 151 152 152 154 154 156 160 162 165 167 174
103 79 36 19 22 49 110 121 115 107 91 87 89 93 75 71 118 131 138 138 137 140 147 150 144 143 142 142 144 145 146 143 143 143 143 146 151 155 157 160 160 163 163 167 170 173 176 182 190
70 74 55 47 81 84 95 111 104 99 106 106 101 102 98 120 126 137 138 139 140 143 147 149 148 148 147 146 146 147 148 149 150 151 153 156 160 164 166 167 168 171 175 180 183 186 192 200 209
133 93 248 173 106 90 117 111 106 117 118 120 122 106 125 133 138 135 133 135 140 142 144 145 149 151 150 148 148 147 149 151 155 158 161 164 167 173 174 176 179 184 189 195 201 206 212 216 223
172 115 293 178 126 121 120 100 114 120 111 126 120 125 155 160 141 130 126 128 133 138 144 148 148 147 152 154 154 153 151 151 156 162 168 174 179 182 186 188 193 200 205 209 214 220 226 232 237
157 108 229 201 156 159 125 103 89 97 107 110 102 131 148 141 133 123 121 120 132 140 150 152 152 157 162 166 165 162 161 164 166 171 179 180 193 196 196 206 208 213 218 221 223 226 231 239 245
157 166 217 208 169 151 139 127 134 108 102 98 101 113 125 133 137 137 142 146 150 157 164 162 162 167 171 177 160 165 168 172 174 172 179 174 181 200 204 215 220 225 227 229 230 232 233 239 245
167 187 212 200 171 148 138 123 113 119 124 145 144 143 139 138 140 145 150 153 160 164 165 164 167 171 173 170 156 162 164 161 170 177 172 170 173 201 218 217 236 237 232 236 240 243 237 231 227
165 209 187 190 171 140 138 131 114 129 155 158 150 148 145 147 153 156 155 155 153 156 166 165 169 165 172 162 160 160 162 167 183 196 182 166 171 200 214 214 227 233 237 235 235 237 240 236 234
171 221 217 165 131 126 119 122 124 135 147 149 148 147 151 154 158 158 155 152 150 155 162 165 160 161 163 152 160 156 166 181 185 183 187 175 175 190 203 218 223 227 225 220 220 231 236 239 238
238 199 112 141 123 128 122 119 112 147 149 148 152 157 161 159 159 155 152 152 155 159 162 163 156 160 152 146 151 149 164 169 172 181 189 183 182 187 192 210 226 236 227 221 209 219 226 229 227
2 42 1 131 129 140 111 86 141 158 146 150 158 163 164 161 159 162 164 160 159 157 153 157 158 153 149 145 151 148 159 159 166 184 188 185 180 182 189 203 227 238 232 222 208 223 225 233 240
18 42 348 281 131 155 115 160 189 159 141 147 158 158 153 159 160 161 160 158 158 152 152 163 160 151 152 151 151 150 153 157 174 184 186 192 193 186 179 193 232 244 237 212 204 201 230 257 256
20 10 281 293 188 144 115 163 178 168 148 150 153 153 149 152 157 158 157 156 153 149 149 153 149 154 156 153 147 136 136 145 164 170 186 202 199 187 175 199 229 229 215 217 231 185 197 240 272
254 267 270 258 250 128 117 144 158 167 151 160 161 158 150 156 172 166 159 154 151 147 142 141 139 145 142 136 117 101 95 114 154 171 189 186 190 183 169 191 235 216 152 303 260 229 246 236 258
212 232 256 246 205 128 144 148 171 174 158 162 167 163 162 168 167 154 152 152 145 141 141 145 144 149 135 130 135 135 164 193 203 206 192 190 188 175 164 173 222 222 181 215 222 197 266 285 297
231 254 267 271 180 125 117 138 181 165 171 174 176 171 166 160 155 157 153 155 157 156 155 152 154 151 152 159 158 153 158 184 178 186 185 209 187 186 169 164 194 198 148 3 1 118 198 305 79
250 212 216 202 47 66 104 46 279 203 161 167 170 174 160 163 161 162 162 167 162 166 167 164 163 154 155 153 127 108 73 31 39 35 278 251 209 187 169 150 152 135 151 221 266 168 160 254 293
260 238 198 163 99 360 110 165 273 252 221 160 163 166 170 169 161 165 168 168 172 177 168 155 155 152 152 148 141 141 146 170 209 207 217 253 233 170 163 142 140 148 158 220 259 166 199 186 260
241 246 173 141 113 68 14 120 278 253 237 222 196 186 182 172 164 166 169 167 167 163 155 151 147 148 154 152 154 153 163 188 195 157 167 237 281 269 176 131 124 174 212 248 288 311 210 185 203
244 40 37 56 68 34 271 146 266 235 217 208 202 193 184 170 161 161 162 154 146 145 142 142 142 153 168 156 155 157 167 169 146 147 159 235 276 300 300 174 179 203 243 283 269 268 243 208 190
60 76 30 4 19 259 264 149 245 239 211 192 192 194 183 166 158 156 157 155 159 157 155 153 152 160 172 165 169 168 172 169 175 190 185 176 203 273 263 247 215 227 245 257 303 336 310 276 222
219 141 158 192 214 262 315 236 252 246 200 179 176 174 171 165 164 161 161 162 168 170 167 162 163 168 179 185 189 183 176 174 190 195 183 184 199 220 228 227 215 211 238 274 243 316 305 324 287
225 205 167 138 131 137 272 284 309 32 125 167 164 160 166 168 167 164 162 163 165 169 171 169 166 169 185 189 180 182 182 182 194 198 187 197 215 208 208 214 203 219 234 258 214 257 280 308 295
160 166 83 101 137 223 274 253 231 199 191 186 160 177 166 156 148 146 150 158 164 174 165 161 163 171 181 188 189 182 195 197 194 177 190 208 222 230 185 168 194 233 263 281 244 276 285 324 319
350 49 97 113 150 154 217 262 221 196 187 169 171 174 164 155 154 147 142 155 163 158 160 158 162 164 173 181 175 173 176 179 176 190 211 209 214 193 184 205 200 215 250 272 266 283 299 318 321
175 164 135 142 237 165 168 258 255 178 175 161 162 155 152 147 144 144 145 148 148 155 169 166 168 173 181 178 169 173 171 169 181 212 215 191 201 209 177 159 172 251 283 282 245 276 293 285 292